Stations météo

réclame
Mon MeteoGroup
Cagliari/Elmas, Italie (16560): Température de l'air & dewpoint: 09.12.2017 15:00:00 - 15.12.2017 15:00:00 (CET)Cagliari/Elmas, Italie (16560): Vitesse du vent: 09.12.2017 15:00:00 - 15.12.2017 15:00:00 (CET)Cagliari/Elmas, Italie (16560): Direction du vent: 09.12.2017 15:00:00 - 15.12.2017 15:00:00 (CET)Cagliari/Elmas, Italie (16560): reduced air pressure: 09.12.2017 15:00:00 - 15.12.2017 15:00:00 (CET)Cagliari/Elmas, Italie (16560): visibility: 09.12.2017 15:00:00 - 15.12.2017 15:00:00 (CET)Cagliari/Elmas, Italie (16560): Quantités de précipitations: 09.12.2017 15:00:00 - 15.12.2017 15:00:00 (CET)
Date & Time tt [°C] td [°C] ff [km/h] ff [knt] dd ppp [hPa] vv [km] rr [mm]
15.12.2017 15:00:00 - - - - - - - -
15.12.2017 14:00:00 15,0 12,0 4 2 - - 10 -
15.12.2017 13:00:00 15,6 11,6 16 9 SSW 1006,4 10 -
15.12.2017 12:00:00 15,0 12,0 21 11 SSW - 10 -
15.12.2017 11:00:00 16,0 12,0 21 11 SW - 10 -
15.12.2017 10:00:00 15,3 11,5 18 10 SW 1009,0 10 0,0
15.12.2017 09:00:00 15,0 11,0 8 4 WSW - 10 -
15.12.2017 08:00:00 14,0 11,0 2 1 - - 10 -
15.12.2017 07:00:00 13,9 11,4 4 2 - 1010,3 10 -
15.12.2017 06:00:00 15,0 11,0 4 2 - - 10 -
15.12.2017 05:00:00 14,0 12,0 8 4 NE - 10 -
15.12.2017 04:00:00 14,4 11,9 5 3 ENE 1011,8 10 0,0
15.12.2017 03:00:00 14,0 12,0 5 3 ENE - 10 -
15.12.2017 02:00:00 14,0 12,0 4 2 - - 10 -
15.12.2017 01:00:00 14,9 11,6 9 5 NE 1013,5 10 -
15.12.2017 00:00:00 15,0 11,0 2 1 - - 10 -
14.12.2017 23:00:00 15,0 12,0 11 6 NW - 10 -
14.12.2017 22:00:00 14,7 11,5 5 3 NW 1015,5 10 0,0
14.12.2017 21:00:00 14,0 11,0 9 5 ESE - 10 -
14.12.2017 20:00:00 15,0 10,0 5 3 ENE - 10 -
14.12.2017 19:00:00 14,2 10,2 5 3 NE 1016,4 10 -
14.12.2017 18:00:00 15,0 10,0 5 3 - - 10 -
14.12.2017 17:00:00 16,0 9,0 5 3 - - 10 -
14.12.2017 16:00:00 16,4 9,7 15 8 W 1017,0 10 0,0
14.12.2017 15:00:00 16,0 10,0 15 8 W - 10 -
14.12.2017 14:00:00 16,0 10,0 16 9 W - 10 -
14.12.2017 13:00:00 15,4 9,6 21 11 W 1019,3 10 -
14.12.2017 12:00:00 15,0 10,0 13 7 W - 10 -
14.12.2017 11:00:00 15,0 9,0 9 5 WNW - 10 -
14.12.2017 10:00:00 14,1 8,6 13 7 NNW 1020,5 10 0,0
14.12.2017 09:00:00 13,0 8,0 13 7 NNW - 10 -
14.12.2017 08:00:00 12,0 8,0 11 6 NNW - 10 -
14.12.2017 07:00:00 10,5 6,8 5 3 NW 1020,6 10 -
14.12.2017 06:00:00 9,0 6,0 5 3 - - 10 -
14.12.2017 05:00:00 7,0 4,0 5 3 NNE - 10 -
14.12.2017 04:00:00 7,6 3,9 4 2 - 1021,8 10 0,0
14.12.2017 03:00:00 7,0 3,0 2 1 - - 10 -
14.12.2017 02:00:00 7,0 3,0 8 4 NE - 10 -
14.12.2017 01:00:00 5,9 2,5 8 4 NE 1022,7 10 -
14.12.2017 00:00:00 7,0 3,0 8 4 NNW - 10 -
13.12.2017 23:00:00 9,0 3,0 13 7 WNW - 10 -
13.12.2017 22:00:00 8,8 4,0 9 5 WNW 1024,3 10 0,0
13.12.2017 21:00:00 9,0 4,0 8 4 WNW - 10 -
13.12.2017 20:00:00 10,0 4,0 13 7 WNW - 10 -
13.12.2017 19:00:00 8,9 3,9 9 5 NNW 1024,1 10 -
13.12.2017 18:00:00 11,0 4,0 9 5 NW - 10 -
13.12.2017 17:00:00 13,0 3,0 15 8 NW - 10 -
13.12.2017 16:00:00 13,7 3,1 22 12 NNW 1023,0 10 0,0
13.12.2017 15:00:00 15,0 5,0 24 13 NW - 10 -
13.12.2017 14:00:00 15,0 5,0 21 11 NW - 10 -
13.12.2017 13:00:00 14,7 6,7 22 12 NNW 1023,0 30 -
13.12.2017 12:00:00 14,0 8,0 26 14 NW - 10 -
13.12.2017 11:00:00 14,0 9,0 24 13 NNW - 10 -
13.12.2017 10:00:00 12,9 10,1 15 8 NW 1023,2 10 0,0
13.12.2017 09:00:00 12,0 10,0 11 6 NW - 10 -
13.12.2017 08:00:00 11,0 9,0 8 4 NNW - 10 -
13.12.2017 07:00:00 11,4 10,0 5 3 N 1020,7 10 -
13.12.2017 06:00:00 12,0 11,0 8 4 NNW - 10 -
13.12.2017 05:00:00 12,0 11,0 8 4 NNW - 10 -
13.12.2017 04:00:00 12,3 10,7 13 7 NW 1020,0 10 0,0
13.12.2017 03:00:00 13,0 11,0 13 7 N - 10 -
13.12.2017 02:00:00 13,0 11,0 9 5 NNW - 10 -
13.12.2017 01:00:00 13,2 10,6 11 6 N 1019,1 10 -
13.12.2017 00:00:00 14,0 11,0 8 4 NNE - 10 -
12.12.2017 23:00:00 14,0 11,0 13 7 NNW - 10 -
12.12.2017 22:00:00 13,2 11,3 15 8 NNW 1018,3 10 0,0
12.12.2017 21:00:00 14,0 11,0 16 9 NNW - 10 -
12.12.2017 20:00:00 14,0 11,0 4 2 - - 10 -
12.12.2017 19:00:00 14,2 11,7 8 4 NW 1016,2 10 -
12.12.2017 18:00:00 15,0 12,0 9 5 NNW - 10 -
12.12.2017 17:00:00 15,0 11,0 15 8 NNW - 10 -
12.12.2017 16:00:00 16,7 12,5 11 6 SSW 1013,9 10 0,0
12.12.2017 15:00:00 18,0 12,0 15 8 S - 10 -
12.12.2017 14:00:00 18,0 14,0 8 4 E - 10 -
12.12.2017 13:00:00 17,9 13,1 9 5 SSE 1013,6 10 -
12.12.2017 12:00:00 18,0 11,0 5 3 E - 10 -
12.12.2017 11:00:00 16,0 11,0 2 1 - - 10 -
12.12.2017 10:00:00 14,9 11,4 5 3 SSW 1013,5 10 0,0
12.12.2017 09:00:00 13,0 11,0 8 4 N - 10 -
12.12.2017 08:00:00 13,0 10,0 8 4 NW - 10 -
12.12.2017 07:00:00 14,6 10,8 9 5 NW 1010,6 10 -
12.12.2017 06:00:00 15,0 12,0 4 2 - - 10 -
12.12.2017 05:00:00 15,0 12,0 11 6 NW - 10 -
12.12.2017 04:00:00 15,6 11,2 13 7 NW 1009,1 10 0,0
12.12.2017 03:00:00 16,0 11,0 9 5 NNW - 10 -
12.12.2017 02:00:00 15,0 12,0 9 5 NE - 10 -
12.12.2017 01:00:00 14,4 11,7 8 4 N 1007,5 10 -
12.12.2017 00:00:00 16,0 12,0 16 9 E - 10 -
11.12.2017 23:00:00 17,0 12,0 13 7 SE - 10 -
11.12.2017 22:00:00 17,4 11,8 21 11 ESE 1006,3 10 0,0
11.12.2017 21:00:00 16,0 13,0 16 9 E - 10 -
11.12.2017 20:00:00 16,0 13,0 22 12 E - 10 -
11.12.2017 19:00:00 15,9 12,6 26 14 ESE 1005,4 10 -
11.12.2017 18:00:00 16,0 12,0 24 13 E - 10 -
11.12.2017 17:00:00 17,0 12,0 22 12 SE - 10 -
11.12.2017 16:00:00 16,4 12,6 26 14 SE 1005,0 10 0,0
11.12.2017 15:00:00 17,0 12,0 22 12 SSE - 10 -
11.12.2017 14:00:00 18,0 12,0 18 10 SSE - 10 -
11.12.2017 13:00:00 17,3 12,9 24 13 SSE 1005,2 10 -
11.12.2017 12:00:00 - - - - - - - -
11.12.2017 11:00:00 17,0 12,0 16 9 S - 10 -
11.12.2017 10:00:00 16,3 11,6 13 7 S 1007,2 10 0,0
11.12.2017 09:00:00 16,0 13,0 13 7 S - 10 -
11.12.2017 08:00:00 16,0 13,0 18 10 S - 10 -
11.12.2017 07:00:00 15,3 12,6 18 10 SSE 1006,9 10 -
11.12.2017 06:00:00 15,0 12,0 15 8 SSE - 10 -
11.12.2017 05:00:00 15,0 13,0 15 8 SSE - 10 -
11.12.2017 04:00:00 15,5 12,3 16 9 SSE 1008,5 10 0,0
11.12.2017 03:00:00 15,0 12,0 11 6 S - 10 -
11.12.2017 02:00:00 15,0 12,0 15 8 S - 10 -
11.12.2017 01:00:00 14,9 11,5 13 7 S 1011,0 10 -
11.12.2017 00:00:00 15,0 11,0 18 10 S - 10 -
10.12.2017 23:00:00 15,0 11,0 16 9 S - 10 -
10.12.2017 22:00:00 14,1 11,5 16 9 S 1012,8 10 0,0
10.12.2017 21:00:00 14,0 12,0 18 10 S - 10 -
10.12.2017 20:00:00 14,0 11,0 24 13 S - 10 -
10.12.2017 19:00:00 13,8 11,4 26 14 S 1013,9 10 -
10.12.2017 18:00:00 13,0 11,0 15 8 S - 10 -
10.12.2017 17:00:00 13,0 10,0 16 9 S - 10 -
10.12.2017 16:00:00 12,6 10,3 13 7 S 1016,1 10 0,0
10.12.2017 15:00:00 13,0 8,0 21 11 S - 10 -
10.12.2017 14:00:00 13,0 7,0 13 7 S - 10 -
10.12.2017 13:00:00 13,2 5,8 13 7 S 1018,4 10 -
10.12.2017 12:00:00 12,0 6,0 11 6 SSW - 10 -
10.12.2017 11:00:00 11,0 6,0 8 4 E - 10 -
10.12.2017 10:00:00 9,3 4,4 8 4 E 1020,4 10 0,0
10.12.2017 09:00:00 7,0 3,0 8 4 E - 10 -
10.12.2017 08:00:00 5,0 2,0 5 3 NE - 10 -
10.12.2017 07:00:00 4,2 2,0 4 2 - 1020,6 10 -
10.12.2017 06:00:00 4,0 2,0 5 3 NE - 10 -
10.12.2017 05:00:00 5,0 2,0 4 2 - - 10 -
10.12.2017 04:00:00 4,6 1,0 4 2 - 1021,1 10 0,0
10.12.2017 03:00:00 5,0 1,0 2 1 - - 10 -
10.12.2017 02:00:00 4,0 0,0 5 3 NE - 10 -
10.12.2017 01:00:00 3,8 0,1 8 4 N 1021,7 10 -
10.12.2017 00:00:00 5,0 0,0 8 4 NNE - 10 -
09.12.2017 23:00:00 5,0 1,0 5 3 NW - 10 -
09.12.2017 22:00:00 4,9 -0,2 4 2 - 1021,6 10 0,0
09.12.2017 21:00:00 7,0 0,0 13 7 NNW - 10 -
09.12.2017 20:00:00 8,0 -1,0 4 2 - - 10 -
09.12.2017 19:00:00 8,4 -0,9 22 12 NW 1020,0 10 -
09.12.2017 18:00:00 9,0 -1,0 29 16 NNW - 10 -
09.12.2017 17:00:00 10,0 -1,0 39 21 NNW - 10 -
09.12.2017 16:00:00 11,1 -0,3 35 19 NNW 1018,0 10 0,0
09.12.2017 15:00:00 12,0 2,0 29 16 NW - 10 -

tt = Température de l'air
td = dewpoint
ff = Vitesse du vent
dd = Direction du vent
ppp = reduced air pressure
vv = visibility
rr = Quantités de précipitations

stations d'obs. à proximité